Other Surface Observations
Issued by NWS Charleston, SC

Home | Current Version | Previous Version | Text Only | Print | Product List | Glossary On
Versions: 1 2 3 4 5 6 7 8 9 10 11 12 13 14 15 16 17 18 19 20 21 22 23 24 25 26 27 28 29 30 31 32 33 34 35 36 37 38 39 40 41 42 43 44 45 46 47 48 49 50
070
SXUS52 KCHS 241227
OSOCHS

MARINE OBSERVATIONS
NATIONAL WEATHER SERVICE CHARLESTON SC
800 AM EDT FRI MAR 24 2017

...DOWNTOWN CHARLESTON AND HARBOR...

CITY           SKY/WX    TMP DP  RH WIND       PRES   REMARKS
WATERFRONT PRK   N/A     53  52  96 NE5       30.47R

...LAKE MOULTRIE...

CITY           SKY/WX    TMP DP  RH WIND       PRES   REMARKS
PINOPOLIS        N/A     48  46  93 E7        30.41R

...LAKE AND SUPPLEMENTAL COASTAL OBSERVATIONS...

STATION/POSITION TIME  TEMP    WIND        PRES    WAVE   SWELL
                       AIR SEA DIR/SP/G            HT/PER HT/PER/DIR
                 (UTC) (F)     (DEG/KT/KT) (MB)    (FT/S) (FT/S/D)
FORT PULASKI     1200   58 60   40/  8/ 10 1031.4
SAPELO ISLAND    1200   59      50/  4     1030.0
WINYAH BAY       1145   54      50/  9     1032.0S
LAKE MURRAY      1220   48      90/  5/  7 1031.8F
ACE BASIN NERRS  1145   48     350/  2     1032.0R


...C-MAN AND BUOY OBSERVATIONS...

STATION/POSITION TIME  TEMP    WIND        PRES    WAVE   SWELL
                       AIR SEA DIR/SP/G            HT/PER HT/PER/DIR
                 (UTC) (F)     (DEG/KT/KT) (MB)    (FT/S) (FT/S/D)
BUOY 41004       1150   66 71   90/ 14/ 16 1031.2R   6/ 7   3/ 80/ 7
BUOY 41008       1150   64 62   90/ 10/ 12 1029.9R   5/ 7   3/100/ 7
FOLLY BEACH CMAN 1200   57      20/  8/  9 1032.5R
CAPERS NS BUOY   1208   59      50/ 10/ 14 1031.7R
FRIPP NS BUOY    1208   61 59   50/  2/  6 1031.1R
5E ST. MARYS GA  1130      63                N/A     5/ 8   2/ 80/11


STATION/POSITION TIME  TEMP    WIND        PRES    WAVE   SWELL
                       AIR SEA DIR/SP/G            HT/PER HT/PER/DIR
                 (UTC) (F)     (DEG/KT/KT) (MB)    (FT/S) (FT/S/D)
FRYING PAN BUOY  1210   65 72  170/ 10/ 16 1032.5
BUOY 41025       1150   58 75  180/ 10/ 14 1034.3R   5/10   5/ 60/10
CAPE LOOKOUT NC  1200   47      20/  6/  8 1033.3F
BUOY 41002       1150   63 72   70/ 14/ 17 1033.3R   6/ 8   5/ 40/ 8
BUOY 41010       NOT AVBL
ST AUGUSTINE FL  1200   66 65   90/ 10/ 11 1029.7R

$$




USA.gov is the U.S. government's official web portal to all federal, state and local government web resources and services.